Terminal Aerodrome Forecast
Issued by NWS Charleston, WV

Current Version | Previous Version | Text Only | Print | Product List | Glossary Off
Versions: 1 2 3 4 5 6 7 8 9 10 11 12 13 14 15 16 17 18 19 20 21 22 23 24 25 26 27 28 29 30 31

705
FTUS41 KRLX 070319 AAC
TAFCRW
TAF AMD
KCRW 070319Z 0703/0724 28009G17KT P6SM SCT007 OVC014
     FM070500 28007KT P6SM BKN011
     FM071600 VRB03KT P6SM BKN060=

USA.gov is the U.S. government's official web portal to all federal, state and local government web resources and services.